EW4388 Weather Reports


time (UTC)temp
F
wind
direction
speed
knots
gust
knots
rain 1hr
in
rain 24hr
in
rain mn
in
humidity
%
barometer
mb
20260507213030 60 101 0.9 4.3 0.00 0.31 0.31 59 1014.5
20260507211522 60 152 0.9 3.5 0.00 0.31 0.31 59 1014.5
20260507210021 60 139 0.9 4.3 0.00 0.31 0.31 60 1014.4
20260507204521 61 82 1.7 3.5 0.00 0.31 0.31 58 1014.6
20260507203020 61 103 0.0 2.6 0.00 0.31 0.31 57 1014.9
20260507201522 61 146 0.9 4.3 0.00 0.31 0.31 56 1015.1
20260507200030 61 94 0.9 4.3 0.00 0.31 0.31 56 1015.2
20260507194518 61 110 0.9 2.6 0.00 0.31 0.31 56 1015.3
20260507193023 61 113 0.0 0.9 0.00 0.31 0.31 57 1015.1
20260507191517 62 103 0.0 0.9 0.00 0.31 0.31 55 1015.0
20260507190032 63 120 0.0 2.6 0.00 0.31 0.31 51 1014.8
20260507184523 64 100 0.0 5.2 0.00 0.31 0.31 48 1014.6
20260507183021 65 139 0.0 2.6 0.00 0.31 0.31 45 1014.7
20260507181514 65 143 1.7 4.3 0.00 0.31 0.31 43 1014.5
20260507180014 65 157 1.7 6.1 0.00 0.31 0.31 43 1014.4
20260507174514 65 137 0.9 3.5 0.00 0.31 0.31 43 1014.4
20260507173015 66 100 0.0 4.3 0.00 0.31 0.31 42 1014.4
20260507171511 67 124 0.9 5.2 0.00 0.31 0.31 41 1014.3
20260507170013 68 2 0.9 5.2 0.00 0.31 0.31 39 1014.3
20260507164517 69 131 0.9 4.3 0.00 0.31 0.31 38 1014.3
20260507163010 69 129 2.6 7.0 0.00 0.31 0.31 37 1014.4
20260507161510 70 123 2.6 7.0 0.00 0.31 0.31 38 1014.4
20260507160009 70 167 2.6 7.8 0.00 0.31 0.31 38 1014.4
20260507154508 70 147 1.7 9.6 0.00 0.31 0.31 37 1014.3
20260507153007 71 111 4.3 11.3 0.00 0.31 0.31 37 1014.2
20260507151506 71 141 2.6 9.6 0.00 0.31 0.31 38 1014.2
20260507150010 72 143 4.3 10.4 0.00 0.31 0.31 36 1014.3
20260507144503 72 152 3.5 8.7 0.00 0.31 0.31 36 1014.4
20260507143002 72 215 3.5 7.8 0.00 0.31 0.31 40 1014.4
20260507141605 72 131 2.6 7.8 0.00 0.31 0.31 44 1014.5
20260507140125 71 105 3.5 10.4 0.00 0.31 0.31 45 1014.5
20260507134559 72 163 5.2 9.6 0.00 0.31 0.31 45 1014.6
20260507133059 72 188 4.3 9.6 0.00 0.31 0.31 45 1014.6
20260507131614 72 153 3.5 7.8 0.00 0.31 0.31 45 1014.7
20260507130110 72 118 4.3 8.7 0.00 0.31 0.31 49 1015.0
20260507124606 72 207 3.5 8.7 0.00 0.31 0.31 53 1015.0
20260507123100 73 187 4.3 10.4 0.00 0.31 0.31 49 1014.9
20260507121551 72 101 2.6 9.6 0.00 0.31 0.31 54 1014.9
20260507120050 72 262 2.6 7.8 0.00 0.31 0.31 54 1015.0
20260507114550 72 116 5.2 14.8 0.00 0.31 0.31 55 1014.8
20260507113048 72 17 1.7 12.2 0.00 0.31 0.31 59 1014.9
20260507111547 72 232 3.5 15.6 0.00 0.31 0.31 59 1014.8
20260507110042 71 82 4.3 15.6 0.00 0.31 0.31 64 1015.2
20260507104541 70 139 6.1 16.5 0.00 0.31 0.31 65 1014.9
20260507103039 70 152 6.1 16.5 0.00 0.31 0.31 65 1015.0
20260507101545 70 65 4.3 19.1 0.00 0.31 0.31 67 1015.2
20260507100037 69 240 5.2 17.4 0.00 0.31 0.31 67 1015.4
20260507094531 68 153 7.8 15.6 0.00 0.31 0.31 70 1015.3
20260507093037 67 206 3.5 14.8 0.00 0.31 0.31 73 1015.2
20260507091527 67 146 5.2 16.5 0.00 0.31 0.31 73 1015.0
20260507090030 66 193 5.2 12.2 0.00 0.31 0.31 76 1014.8
20260507084522 66 139 5.2 16.5 0.00 0.31 0.31 80 1014.5
20260507083034 65 133 7.0 14.8 0.00 0.31 0.31 81 1014.6
20260507081516 65 153 3.5 10.4 0.00 0.31 0.31 82 1014.8
20260507080013 64 163 1.7 8.7 0.00 0.31 0.31 82 1014.6
20260507074525 63 115 0.9 6.1 0.00 0.31 0.31 82 1014.9
20260507073012 62 101 1.7 8.7 0.00 0.31 0.31 82 1015.3
20260507071510 62 143 2.6 8.7 0.00 0.31 0.31 82 1015.4
20260507070012 61 131 2.6 11.3 0.00 0.31 0.31 82 1015.1
20260507064510 60 127 2.6 8.7 0.02 0.31 0.31 81 1015.3
20260507063007 60 217 3.5 13.0 0.02 0.31 0.31 79 1015.3
20260507061507 59 131 1.7 8.7 0.04 0.31 0.31 78 1015.9
20260507060005 59 101 1.7 6.1 0.05 0.31 0.31 78 1016.5
20260507054503 60 172 2.6 6.1 0.04 0.30 0.30 78 1016.7
20260507053004 60 144 0.0 3.5 0.04 0.28 0.28 78 1016.7
20260507051502 60 131 0.0 4.3 0.03 0.28 0.28 78 1016.7
20260507050003 60 146 0.0 2.6 0.03 0.27 0.27 78 1016.8
20260507044621 60 8 0.0 0.9 0.06 0.26 0.26 78 1016.6
20260507043059 60 8 0.0 1.7 0.07 0.25 0.25 78 1016.1
20260507041602 60 129 0.0 0.9 0.06 0.24 0.24 78 1016.0
20260507040105 60 146 0.0 3.5 0.06 0.24 0.24 78 1016.3
20260507034559 60 147 1.7 7.8 0.03 0.20 0.20 78 1016.3
20260507033053 60 224 2.6 7.0 0.02 0.18 0.18 78 1016.4
20260507031555 60 231 0.9 3.5 0.05 0.18 0.18 78 1016.2
20260507030053 60 224 0.9 2.6 0.06 0.17 0.17 78 1015.9
20260507024547 60 226 0.0 0.9 0.08 0.17 0.17 78 1015.4
20260507023048 60 226 0.0 1.7 0.07 0.16 0.16 78 1015.1
20260507021546 60 115 0.0 3.5 0.06 0.13 0.13 78 1014.7
20260507020051 60 127 0.9 5.2 0.06 0.12 0.12 78 1014.8
20260507014547 60 136 1.7 5.2 0.04 0.09 0.09 78 1015.3
20260507013041 60 143 0.9 4.3 0.06 0.09 0.09 78 1015.5
20260507011543 61 143 0.0 1.7 0.06 0.07 0.07 79 1015.2
20260507010038 61 143 0.0 0.9 0.06 0.06 0.06 79 1015.2
20260507004537 61 143 0.0 3.5 0.06 0.06 0.06 79 1015.3
20260507003034 61 232 0.0 1.7 0.03 0.03 0.03 80 1015.1
20260507001546 62 234 0.0 1.7 0.02 0.02 0.02 81 1015.1
20260507000030 62 234 0.0 1.7 0.01 0.01 0.01 81 1014.8
20260506234540 62 233 0.0 0.0 0.00 0.00 0.00 82 1014.6
20260506233028 62 221 0.0 4.3 0.00 0.00 0.00 82 1014.8
20260506231528 63 214 0.9 3.5 0.00 0.00 0.00 82 1014.6
20260506230025 63 156 0.0 2.6 0.00 0.00 0.00 82 1014.7
20260506224528 63 234 0.0 1.7 0.00 0.00 0.00 82 1014.7
20260506223022 63 180 1.7 5.2 0.00 0.00 0.00 81 1014.9
20260506221522 63 134 1.7 5.2 0.00 0.00 0.00 81 1014.9
20260506220018 63 131 2.6 7.8 0.00 0.00 0.00 81 1015.0
20260506214517 64 122 2.6 8.7 0.00 0.00 0.00 81 1015.0